Regional Weather Roundup
Issued by NWS

Home | Current Version | Previous Version | Text Only | Print | Product List | Glossary On
Versions: 1 2 3 4 5 6 7 8 9 10 11 12 13 14 15 16 17 18 19 20 21 22 23 24 25 26 27 28 29 30 31 32 33 34 35 36 37 38 39 40 41 42 43 44 45 46 47 48 49 50
000
ASUS43 KDMX 281906
RWRIA

WEATHER ROUNDUP FOR IOWA
NATIONAL WEATHER SERVICE DES MOINES IA
200 PM CDT FRI JUL 28 2017

NOTE: "FAIR" INDICATES FEW OR NO CLOUDS BELOW 12,000 FEET WITH NO
SIGNIFICANT WEATHER AND/OR OBSTRUCTIONS TO VISIBILITY.

* - THESE STATIONS ARE NOT NWS STATIONS...THUS NOT UNDER NWS
QUALITY CONTROL.  THEY ALSO DO NOT REPORT WEATHER SUCH
AS PRECIPITATION OR FOG.

IAZ001>003-012>014-020>022-031>034-043>046-282000-
   NORTHWEST IOWA

CITY           SKY/WX    TMP DP  RH WIND       PRES   REMARKS
CARROLL *      MOSUNNY   81  63  54 VRB5      30.07S HX  82
CHEROKEE *     CLOUDY    82  59  45 CALM      30.08S HX  82
DENISON *      CLOUDY    79  64  61 E7        30.09S HX  81
ORANGE CITY *  CLOUDY    79  63  57 CALM      30.10S HX  80
SHELDON *      CLOUDY    81  61  50 CALM      30.08F HX  81
SIOUX CITY     CLOUDY    80  65  59 SE5       30.07F HX  82
SPENCER        CLOUDY    83  57  41 VRB6      30.09F HX  82
STORM LAKE *     N/A     79  63  57 VRB6      30.09S HX  80
$$

IAZ055>058-069>071-079>083-090>094-282000-
   SOUTHWEST IOWA

CITY           SKY/WX    TMP DP  RH WIND       PRES   REMARKS
ATLANTIC *     CLOUDY    82  64  54 VRB7      30.05F HX  84
AUDUBON *      CLOUDY    81  66  61 NE5       30.08S HX  83
CLARINDA *     CLOUDY    82  66  57 NE5       30.06S HX  85
COUNCIL BLFS * CLOUDY    81  64  57 E7        30.07S HX  82
CRESTON *      PTSUNNY   82  61  47 NE13      30.06S HX  83
HARLAN  *      CLOUDY    81  66  61 E5        30.09F HX  83
LAMONI           N/A     84  63  49 E8        30.03F HX  85
RED OAK *      PTSUNNY   81  66  61 NE7       30.05F HX  83
SHENANDOAH *   MOSUNNY   82  66  57 VRB7      30.05S HX  85
$$

IAZ047>049-059>061-072>074-084-282000-
   CENTRAL IOWA

CITY           SKY/WX    TMP DP  RH WIND       PRES   REMARKS
AMES           CLOUDY    82  67  60 VRB7      30.05F HX  84
ANKENY *       MOSUNNY   81  64  57 NE8       30.06S HX  82
BOONE *        PTSUNNY   82  64  54 E6        30.05S HX  84
CHARITON *     MOSUNNY   82  61  47 NE9G15    30.03F HX  83
DES MOINES     MOSUNNY   86  60  41 NE12      30.03F HX  86
GRINNELL*      MOSUNNY   80  63  54 NE3       30.07S HX  82
KNOXVILLE *    MOSUNNY   82  61  47 E9G16     30.02F HX  83
MARSHALLTOWN   SUNNY     83  63  50 NE8       30.05S HX  84
NEWTON *       MOSUNNY   81  63  54 VRB7G13   30.05F HX  82
PELLA *        MOSUNNY   84  59  41 E5        30.05F HX  84
PERRY *          N/A     82  66  59 CALM      30.05F HX  84
$$

IAZ004>006-015-016-023>025-035-036-282000-
   NORTH CENTRAL IOWA

CITY           SKY/WX    TMP DP  RH WIND       PRES   REMARKS
ALGONA *       PTSUNNY   81  61  50 NE7       30.09S HX  81
ESTHERVILLE    PTSUNNY   80  62  54 VRB3      30.09S HX  81
FORT DODGE *   MOSUNNY   82  63  51 NE6       30.08S HX  83
MASON CITY     MOSUNNY   81  63  54 NE6       30.09S HX  82
FOREST CITY *    N/A     81  61  50 CALM      30.08S HX  81
WEBSTER CITY * PTSUNNY   84  63  48 NE8       30.04S HX  85
IOWA FALLS *     N/A     82  63  51 E3        30.08S HX  83
$$

IAZ007>011-017>019-026>030-037>042-050>054-066-282000-
   NORTHEAST IOWA

CITY           SKY/WX    TMP DP  RH WIND       PRES   REMARKS
CEDAR RAPIDS   MOSUNNY   81  65  58 NE10      30.03F HX  83
CHARLES CITY * MOSUNNY   81  64  57 VRB5      30.08R HX  82
DECORAH *      MOSUNNY   77  63  61 NE8       30.07S
DUBUQUE        MOSUNNY   77  60  55 N10       30.05F
MONTICELLO *   PTSUNNY   79  64  61 NE5G12    30.04F HX  81
OELWEIN *      MOSUNNY   79  66  65 NE7       30.07S HX  81
WATERLOO       MOSUNNY   81  64  56 NE5       30.05S HX  82
$$

IAZ064-065-067-068-078-282000-
   EAST CENTRAL IOWA

CITY           SKY/WX    TMP DP  RH WIND       PRES   REMARKS
DAVENPORT      SUNNY     78  62  57 N14       30.05S HX  80
IOWA CITY      SUNNY     83  63  50 NE12      30.04F HX  84
MT. PLEASANT * SUNNY     80  60  50 NE9       30.03R HX  81
MUSCATINE *    PTSUNNY   81  64  57 NE12G18   30.02S HX  82
QUAD CITIES    SUNNY     81  59  47 N14       30.01S HX  81
$$

IAZ062-063-075>077-085>089-095>099-282000-
   SOUTHEAST IOWA

CITY           SKY/WX    TMP DP  RH WIND       PRES   REMARKS
BURLINGTON     MOSUNNY   81  62  52 NE14      30.01S HX  82
FAIRFIELD *    SUNNY     82  59  44 NE13G20   30.03S HX  82
FORT MADISON * SUNNY     79  63  57 NE10      30.02S HX  80
KEOKUK *       SUNNY     81  59  47 N12G20    30.00S HX  81
OSKALOOSA *      N/A     82  59  44 E6G16     30.04S HX  82
CENTERVILLE *    N/A     84  55  37 NE8G18    30.04S HX  83
OTTUMWA        SUNNY     85  56  37 E8G21     30.03F HX  84
WASHINGTON *   MOSUNNY   81  66  61 NE9       30.04S HX  83
$$

ABBREVIATIONS USED IN REMARKS
   TC - TEMPERATURES IN CELSIUS
  WCI - WIND CHILL INDEX
   HX - HEAT INDEX
  VSB - VISIBILITY
$$





USA.gov is the U.S. government's official web portal to all federal, state and local government web resources and services.